Вернуться в каталог

COSMOS 252 DEB

АктивенLEO
NORAD 15519·DEBRIS·🇷🇺 Russia

Запущен Nov 1, 1968 с Baikonur Cosmodrome

Loading…

Ближайшие Пролёты (ближайшие 24 часа)

TLE

СвежийSource: Space-Track

Эпоха: Sep 14, 2026, 10:38 UTC

1 15519U 68097EF  26257.44307883  .00000220  00000-0  14278-3 0  9999
2 15519  62.3769  51.4934 0869280 304.9511  47.2782 13.07464500831246

Отслеживайте COSMOS 252 DEB в реальном времени с AllMySat

Download on the App Store